NUSAT-5 (MARYAM) (43204 NORAD) Tracking and Keplerian Element Data

This shows tracking and keplerian element data for the satellite.

Feedback or suggestion? Click here.




ElementValue
Catalog43204
NameNUSAT-5 (MARYAM)
Epoch Orbit20144
Epoch Day262.23140314
Epoch Year2021
RAAN36.4413
Inclination97.4997
Eccentricity0.0014558
Argument of Perigee287.3934
Mean Anonmoly190.486
Mean Motion15.26473228
Decay Rate2.391E-05
L11 43204U 18015K 21262.23140314 .00002391 00000-0 94340-4 0 9998
L22 43204 97.4997 36.4413 0014558 287.3934 190.4860 15.26473228201449

Live tracking and technical data element details for NUSAT-5 (MARYAM) (NORAD 43204). NUSAT-5 (MARYAM) can be tracked NOW for your location showing map with azimuth and elevation plus other details from your city location.

Track the satellite on the map from your city or location and see movement details for azimuth, elevation, latitude, longitude, range, height, and movement on the map or in text.







IsCatalogInMostPopularTable: catalog: 43204, numindb: 614
Update: records affected: 1



GetName: 43204 NUSAT-5 (MARYAM)

Hit Count: updated at: Sun, 26 Sep 2021 00:55:59 GMT